| time (UTC) | temp C | wind direction | speed KPH | gust KPH | rain 1hr cm | rain 24hr cm | rain mn cm | humidity % | barometer mb |
| 20260506204519 | 12 | 246 | 4.8 | 0.0 | 0.00 | 0.00 | 0.86 | 55 | 1010.6 |
| 20260506203015 | 12 | 264 | 4.8 | 0.0 | 0.00 | 0.00 | 0.86 | 57 | 1010.5 |
| 20260506201509 | 12 | 272 | 3.2 | 0.0 | 0.00 | 0.00 | 0.86 | 57 | 1010.7 |
| 20260506200010 | 12 | 319 | 1.6 | 0.0 | 0.00 | 0.00 | 0.86 | 59 | 1010.9 |
| 20260506194554 | 12 | 291 | 3.2 | 0.0 | 0.00 | 0.00 | 0.86 | 56 | 1010.9 |
| 20260506193045 | 12 | 345 | 4.8 | 0.0 | 0.00 | 0.00 | 0.86 | 57 | 1010.9 |
| 20260506191529 | 12 | 287 | 4.8 | 0.0 | 0.00 | 0.00 | 0.86 | 57 | 1010.7 |
| 20260506190021 | 12 | 280 | 4.8 | 0.0 | 0.00 | 0.00 | 0.86 | 58 | 1010.4 |
| 20260506184509 | 13 | 178 | 4.8 | 0.0 | 0.00 | 0.00 | 0.86 | 56 | 1010.5 |
| 20260506183052 | 13 | 311 | 4.8 | 0.0 | 0.00 | 0.00 | 0.86 | 56 | 1010.8 |
| 20260506181551 | 13 | 5 | 6.4 | 0.0 | 0.00 | 0.00 | 0.86 | 53 | 1010.6 |
| 20260506180045 | 13 | 337 | 6.4 | 0.0 | 0.00 | 0.00 | 0.86 | 57 | 1010.5 |
| 20260506174533 | 13 | 85 | 4.8 | 0.0 | 0.00 | 0.00 | 0.86 | 59 | 1010.6 |
| 20260506173028 | 13 | 267 | 6.4 | 0.0 | 0.00 | 0.00 | 0.86 | 60 | 1010.6 |
| 20260506171522 | 13 | 311 | 6.4 | 0.0 | 0.00 | 0.00 | 0.86 | 59 | 1010.4 |
| 20260506170008 | 13 | 39 | 4.8 | 0.0 | 0.00 | 0.00 | 0.86 | 62 | 1010.5 |
| 20260506164614 | 12 | 301 | 4.8 | 0.0 | 0.00 | 0.00 | 0.86 | 60 | 1010.5 |
| 20260506163047 | 12 | 319 | 4.8 | 0.0 | 0.00 | 0.00 | 0.86 | 68 | 1010.6 |
| 20260506161535 | 12 | 227 | 4.8 | 0.0 | 0.00 | 0.00 | 0.86 | 69 | 1010.5 |
| 20260506160028 | 11 | 267 | 4.8 | 0.0 | 0.00 | 0.00 | 0.86 | 70 | 1010.7 |
| 20260506154521 | 11 | 267 | 3.2 | 0.0 | 0.00 | 0.00 | 0.86 | 70 | 1010.3 |
| 20260506153013 | 11 | 360 | 4.8 | 0.0 | 0.00 | 0.00 | 0.86 | 70 | 1010.1 |
| 20260506151556 | 11 | 63 | 3.2 | 0.0 | 0.00 | 0.00 | 0.86 | 73 | 1010.1 |
| 20260506150046 | 10 | 32 | 4.8 | 0.0 | 0.00 | 0.00 | 0.86 | 73 | 1010.3 |
| 20260506144533 | 10 | 294 | 3.2 | 0.0 | 0.00 | 0.00 | 0.86 | 76 | 1010.0 |
| 20260506143032 | 10 | 304 | 4.8 | 0.0 | 0.00 | 0.00 | 0.86 | 77 | 1009.8 |
| 20260506141510 | 8 | 277 | 4.8 | 0.0 | 0.00 | 0.00 | 0.86 | 78 | 1009.5 |
| 20260506140101 | 8 | 49 | 4.8 | 0.0 | 0.00 | 0.00 | 0.86 | 81 | 1009.3 |
| 20260506140003 | 8 | 38 | 4.8 | 0.0 | 0.00 | 0.00 | 0.86 | 81 | 1009.3 |
| 20260506134551 | 8 | 14 | 3.2 | 0.0 | 0.00 | 0.00 | 0.86 | 86 | 1009.3 |
| 20260506133043 | 7 | 344 | 1.6 | 0.0 | 0.00 | 0.00 | 0.86 | 91 | 1009.2 |
| 20260506131536 | 7 | 266 | 1.6 | 0.0 | 0.00 | 0.00 | 0.86 | 92 | 1009.4 |
| 20260506130016 | 7 | 259 | 1.6 | 0.0 | 0.00 | 0.00 | 0.86 | 93 | 1009.2 |
| 20260506124504 | 7 | 240 | 3.2 | 0.0 | 0.00 | 0.00 | 0.86 | 94 | 1008.8 |
| 20260506123047 | 7 | 315 | 3.2 | 0.0 | 0.00 | 0.00 | 0.86 | 95 | 1008.5 |
| 20260506121546 | 7 | 292 | 1.6 | 0.0 | 0.00 | 0.00 | 0.86 | 96 | 1008.1 |
| 20260506120055 | 7 | 11 | 1.6 | 0.0 | 0.00 | 0.00 | 0.86 | 96 | 1007.9 |
| 20260506114516 | 7 | 37 | 1.6 | 0.0 | 0.00 | 0.00 | 0.86 | 96 | 1007.4 |
| 20260506113008 | 7 | 53 | 1.6 | 0.0 | 0.00 | 0.00 | 0.86 | 96 | 1006.9 |
| 20260506111559 | 7 | 27 | 1.6 | 0.0 | 0.00 | 0.00 | 0.86 | 96 | 1006.8 |
| 20260506110054 | 7 | 14 | 3.2 | 0.0 | 0.00 | 0.00 | 0.86 | 96 | 1007.4 |
| 20260506104541 | 7 | 57 | 3.2 | 0.0 | 0.00 | 0.00 | 0.86 | 96 | 1006.6 |
| 20260506103031 | 7 | 336 | 1.6 | 0.0 | 0.00 | 0.00 | 0.86 | 96 | 1007.0 |
| 20260506101518 | 7 | 320 | 1.6 | 0.0 | 0.00 | 0.00 | 0.86 | 96 | 1006.6 |
| 20260506100006 | 7 | 277 | 1.6 | 0.0 | 0.00 | 0.00 | 0.86 | 96 | 1006.3 |
| 20260506094555 | 7 | 53 | 3.2 | 0.0 | 0.00 | 0.00 | 0.86 | 96 | 1005.5 |
| 20260506093047 | 7 | 69 | 4.8 | 0.0 | 0.00 | 0.00 | 0.86 | 96 | 1005.2 |
| 20260506091541 | 7 | 40 | 4.8 | 0.0 | 0.00 | 0.00 | 0.84 | 96 | 1005.7 |
| 20260506090029 | 7 | 34 | 3.2 | 0.0 | 0.00 | 0.00 | 0.84 | 96 | 1006.0 |
| 20260506084525 | 7 | 53 | 3.2 | 0.0 | 0.00 | 0.00 | 0.79 | 96 | 1006.0 |
| 20260506083012 | 7 | 9 | 3.2 | 0.0 | 0.00 | 0.00 | 0.71 | 96 | 1005.8 |
| 20260506081505 | 7 | 322 | 3.2 | 0.0 | 0.00 | 0.00 | 0.66 | 96 | 1005.7 |
| 20260506073036 | 7 | 295 | 4.8 | 0.0 | 0.00 | 0.00 | 0.64 | 96 | 1005.6 |
| 20260506071528 | 7 | 245 | 4.8 | 0.0 | 0.00 | 0.00 | 0.58 | 96 | 1005.4 |
| 20260506061550 | 8 | 340 | 4.8 | 0.0 | 0.00 | 0.00 | 0.28 | 96 | 1005.1 |
| 20260506044546 | 9 | 342 | 1.6 | 0.0 | 0.00 | 0.00 | 0.03 | 96 | 1005.2 |
| 20260506043021 | 9 | 22 | 1.6 | 0.0 | 0.00 | 0.00 | 0.00 | 96 | 1005.4 |
| 20260506041512 | 9 | 75 | 1.6 | 0.0 | 0.00 | 0.00 | 0.00 | 96 | 1005.4 |
| 20260506040058 | 9 | 60 | 1.6 | 0.0 | 0.00 | 0.00 | 0.00 | 96 | 1005.5 |
| 20260506034543 | 9 | 40 | 3.2 | 0.0 | 0.00 | 0.00 | 2.46 | 96 | 1005.7 |
| 20260506033035 | 9 | 28 | 3.2 | 0.0 | 0.00 | 0.00 | 2.46 | 95 | 1006.0 |
| 20260506031534 | 9 | 93 | 4.8 | 0.0 | 0.00 | 0.00 | 2.41 | 95 | 1006.1 |
| 20260506030115 | 10 | 15 | 4.8 | 0.0 | 0.00 | 0.00 | 2.34 | 95 | 1006.3 |
| 20260506024532 | 10 | 29 | 4.8 | 0.0 | 0.00 | 0.00 | 2.29 | 95 | 1006.1 |
| 20260506023017 | 10 | 360 | 4.8 | 0.0 | 0.00 | 0.00 | 2.21 | 95 | 1006.2 |
| 20260506021505 | 10 | 325 | 3.2 | 0.0 | 0.00 | 0.00 | 2.11 | 95 | 1006.2 |
| 20260506020051 | 11 | 188 | 3.2 | 0.0 | 0.00 | 0.00 | 2.03 | 94 | 1005.8 |
| 20260506014531 | 12 | 217 | 4.8 | 0.0 | 0.00 | 0.00 | 1.96 | 95 | 1005.2 |
| 20260506013024 | 13 | 5 | 4.8 | 0.0 | 0.00 | 0.00 | 1.91 | 94 | 1005.3 |
| 20260506011511 | 14 | 217 | 1.6 | 0.0 | 0.00 | 0.00 | 1.80 | 96 | 1005.1 |
| 20260506010005 | 14 | 217 | 4.8 | 0.0 | 0.00 | 0.00 | 1.73 | 95 | 1005.0 |
| 20260506004625 | 14 | 207 | 6.4 | 0.0 | 0.00 | 0.00 | 1.65 | 95 | 1005.1 |
| 20260506004501 | 14 | 234 | 6.4 | 0.0 | 0.00 | 0.00 | 1.65 | 95 | 1005.1 |
| 20260506003045 | 14 | 214 | 6.4 | 0.0 | 0.00 | 0.00 | 1.57 | 95 | 1004.8 |
| 20260506001535 | 14 | 223 | 6.4 | 0.0 | 0.00 | 0.00 | 1.42 | 95 | 1004.8 |
| 20260506000027 | 14 | 211 | 6.4 | 0.0 | 0.00 | 0.00 | 1.30 | 95 | 1004.8 |
| 20260505234527 | 14 | 211 | 6.4 | 0.0 | 0.00 | 0.00 | 1.24 | 95 | 1004.9 |
| 20260505233100 | 14 | 212 | 6.4 | 0.0 | 0.00 | 0.00 | 1.19 | 95 | 1005.0 |
| 20260505233002 | 14 | 211 | 6.4 | 0.0 | 0.00 | 0.00 | 1.19 | 95 | 1005.1 |
| 20260505231554 | 15 | 226 | 4.8 | 0.0 | 0.00 | 0.00 | 1.09 | 94 | 1005.4 |
| 20260505230042 | 15 | 209 | 4.8 | 0.0 | 0.00 | 0.00 | 0.99 | 94 | 1005.6 |
| 20260505224533 | 15 | 218 | 4.8 | 0.0 | 0.00 | 0.00 | 0.91 | 94 | 1005.7 |
| 20260505223020 | 15 | 225 | 3.2 | 0.0 | 0.00 | 0.00 | 0.84 | 94 | 1005.7 |
| 20260505221511 | 15 | 215 | 3.2 | 0.0 | 0.00 | 0.00 | 0.79 | 93 | 1005.6 |
| 20260505220138 | 15 | 233 | 4.8 | 0.0 | 0.00 | 0.00 | 0.76 | 92 | 1005.6 |
| 20260505220007 | 15 | 234 | 4.8 | 0.0 | 0.00 | 0.00 | 0.71 | 92 | 1005.6 |
| 20260505214554 | 15 | 209 | 8.0 | 0.0 | 0.00 | 0.00 | 0.64 | 90 | 1005.5 |
| 20260505213032 | 16 | 261 | 4.8 | 0.0 | 0.00 | 0.00 | 0.30 | 84 | 1005.1 |
| 20260505211520 | 17 | 225 | 4.8 | 0.0 | 0.00 | 0.00 | 0.05 | 78 | 1004.1 |
| 20260505210021 | 18 | 248 | 3.2 | 0.0 | 0.00 | 0.00 | 0.03 | 72 | 1004.1 |